Regional Weather Roundup
Issued by NWS

Home | Current Version | Previous Version | Text Only | Print | Product List | Glossary On
Versions: 1 2 3 4 5 6 7 8 9 10 11 12 13 14 15 16 17 18 19 20 21 22 23 24 25 26 27 28 29 30 31 32 33 34 35 36 37 38 39 40 41 42 43 44 45 46 47 48 49 50
000
ASPQ40 PGUM 271712
RWRPQ
WEATHER ROUNDUP FOR THE MARIANAS AND MICRONESIA
NATIONAL WEATHER SERVICE TIYAN GU
300 AM CHST FRI NOV 28 2014

GUZ001>004-271800-
MARIANA ISLANDS-

CITY           SKY/WX    TMP DP  RH WIND       PRES   REMARKS
GUAM AIRPORT   CLEAR     81  75  83 NE14      29.84F
ANDERSEN AFB   PTCLDY    81  75  83 NE21      29.84F
ROTA AIRPORT   NOT AVBL
TINIAN AP      NOT AVBL
SAIPAN AP      PTCLDY    81  72  74 E21G30    29.86F

$$

PMZ161-271800-
REPUBLIC OF PALAU-

CITY           SKY/WX    TMP DP  RH WIND       PRES   REMARKS
KOROR AP       LGT RAIN  79  75  89 NE12G25   29.72F
KOROR WSO      CLOUDY    77  75  94 E14       29.71

$$

PMZ171>174-271800-
FEDERATED STATES OF MICRONESIA-

CITY           SKY/WX    TMP DP  RH WIND       PRES   REMARKS
YAP AIRPORT    MOCLDY    81  79  94 E7        29.74F THUNDER
CHUUK AP       CLOUDY    82  77  83 E9        29.73F HX  91
POHNPEI AP     NOT AVBL
POHNPEI WSO    CLOUDY    82  79  89 NE9       29.74F HX  93
KOSRAE AP      NOT AVBL

$$

PMZ181-271800-
REPUBLIC OF THE MARSHALL ISLANDS-

CITY           SKY/WX    TMP DP  RH WIND       PRES   REMARKS
KWAJALEIN AP   MOCLDY    79  75  89 NE18      29.76S
MAJURO AP      NOT AVBL
MAJURO WSO     LGT RAIN  81  77  89 E15       29.75S

$$




USA.gov is the U.S. government's official web portal to all federal, state and local government web resources and services.